Regional Weather Roundup
Issued by NWS

Home | Current Version | Previous Version | Text Only | Print | Product List | Glossary Off
Versions: 1 2 3 4 5 6 7 8 9 10 11 12 13 14 15 16 17 18 19 20 21 22 23 24 25 26 27 28 29 30 31 32 33 34 35 36 37 38 39 40 41 42 43 44 45 46 47 48 49 50

000
ASUS43 KMKX 162200
RWRWI

WISCONSIN REGIONAL WEATHER ROUNDUP
NATIONAL WEATHER SERVICE MILWAUKEE/SULLIVAN WI
500 PM CDT MON OCT 16 2017

NOTE: "FAIR" INDICATES FEW OR NO CLOUDS BELOW 12,000 FEET WITH NO
SIGNIFICANT WEATHER AND/OR OBSTRUCTIONS TO VISIBILITY.

WIZ001-002-006>008-014>016-023>028-162300-
NORTHWEST WISCONSIN

CITY           SKY/WX    TMP DP  RH WIND       PRES   REMARKS
SUPERIOR ARPT  CLOUDY    62  35  37 SW16      29.96F
ASHLAND        SUNNY     59  33  37 SW13      29.99F
HAYWARD        SUNNY     59  33  37 S14       30.03F
SIREN          SUNNY     61  32  34 SW15      30.03F
CUMBERLAND     SUNNY     59  32  36 SW12      30.06F
RICE LAKE      SUNNY     61  33  34 S12       30.08F
CHETEK         SUNNY     60  36  39 SW7       30.08F
LADYSMITH      SUNNY     58  34  39 SW10      30.08F
EAU CLAIRE     NOT AVBL
MENOMONIE      SUNNY     63  34  34 S8        30.08F
NEW RICHMOND   SUNNY     62  32  33 SW10      30.06F
OSCEOLA        SUNNY     63  34  34 SW9       30.07F
$$

WIZ003>005-009-010-017-018-162300-
NORTH CENTRAL WISCONSIN

CITY           SKY/WX    TMP DP  RH WIND       PRES   REMARKS
MANITOWISH WTR SUNNY     55  34  44 SW10G18   30.05F
ARBOR VITAE    SUNNY     57  35  44 SW9       30.06F
WOODRUFF       SUNNY     57  35  44 SW9       30.06F
RHINELANDER    CLOUDY    56  34  43 SW12G18   30.08F
EAGLE RIVER    SUNNY     55  32  42 SW6       30.06F
LAND O LAKES   SUNNY     56  32  40 SW12G20   30.07F
PHILLIPS       SUNNY     55  34  43 SW8       30.06F
TOMAHAWK       CLOUDY    56  32  40 SW3       30.09F
MEDFORD        SUNNY     56  32  40 SW10G18   30.10F
MERRILL        SUNNY     57  35  42 SW13      30.10F
$$

WIZ029-030-035-036-043>047-162300-
CENTRAL WISCONSIN

CITY           SKY/WX    TMP DP  RH WIND       PRES   REMARKS
WAUSAU         SUNNY     56  35  45 SW12      30.10F
MOSINEE        NOT AVBL
MARSHFIELD     SUNNY     58  35  42 SW8       30.11F
STEVENS POINT  SUNNY     57  32  39 SW12G21   30.14F
WAUPACA        SUNNY     61  34  36 SW15      30.15F
WAUTOMA        SUNNY     60  36  40 W10       30.16S
WISC RAPIDS    SUNNY     59  37  44 SW9       30.14F
CAMP DOUGLAS   NOT AVBL
$$

WIZ011>013-019>022-031-037>040-048>050-162300-
NORTHEAST WISCONSIN

CITY           SKY/WX    TMP DP  RH WIND       PRES   REMARKS
ANTIGO         CLOUDY    54  37  53 SW10G17   30.11F
SHAWANO        SUNNY     60  37  42 SW8       30.13S
OCONTO         MOSUNNY   58  36  43 SW13G18   30.14S
STURGEON BAY   CLEAR     56  38  50 SW12      30.14F
GREEN BAY      SUNNY     58  40  51 SW6       30.15F
MANITOWOC      SUNNY     58  34  40 W12       30.16F
APPLETON       MOSUNNY   57  32  38 SW12      30.14F
CLINTONVILLE   SUNNY     59  34  38 SW13      30.14S
OSHKOSH        SUNNY     58  36  43 SW8G17    30.15F
$$

WIZ032>034-041-042-053>061-162300-
SOUTHWEST WISCONSIN

CITY           SKY/WX    TMP DP  RH WIND       PRES   REMARKS
LA CROSSE      SUNNY     65  34  31 S8        30.12F
SPARTA         SUNNY     61  34  35 SW3       30.14F
VIROQUA        SUNNY     61  34  35 SW3       30.15F
BOSCOBEL       SUNNY     65  31  28 SW9       30.16F
PRAIRIE DU CHI SUNNY     64  30  27 SW8       30.16F
PLATTEVILLE    SUNNY     63  35  36 SW10G18   30.19F
$$

WIZ056-057-062-063-064-067-068-162300-
SOUTH CENTRAL WISCONSIN

CITY           SKY/WX    TMP DP  RH WIND       PRES   REMARKS
REEDSBURG      SUNNY     59  37  42 SW10      30.15F
BARABOO/DELLS  SUNNY     59  34  38 SW12      30.17S
LONE ROCK      NOT AVBL
MINERAL POINT  SUNNY     63  32  31 W12       30.19F
MADISON        MOSUNNY   60  35  39 VRB6      30.18F
MIDDLETON      SUNNY     62  36  38 SW10G16   30.19F
WATERTOWN      SUNNY     60  36  41 SW10      30.19S
MONROE         SUNNY     61  32  33 SW14G20   30.19F
JANESVILLE     SUNNY     63  32  31 W7        30.19F
$$

WIZ051-052-058>065-066-070>072-162300-
SOUTHEAST WISCONSIN

CITY           SKY/WX    TMP DP  RH WIND       PRES   REMARKS
MILWAUKEE      MOSUNNY   62  34  35 W12       30.20S
WAUKESHA       SUNNY     57  36  44 SW7       30.20S
MILWAUKEE/TIMM SUNNY     59  30  33 SW7       30.20F
RACINE         SUNNY     61  34  36 W6        30.22S
BURLINGTON     SUNNY     60  36  40 W8        30.20S
KENOSHA        SUNNY     60  35  39 W9        30.21S
FOND DU LAC    SUNNY     59  35  40 SW9       30.17F
SHEBOYGAN      SUNNY     58  37  45 W7        30.17F
WEST BEND      SUNNY     59  32  36 W9G17     30.18F
JUNEAU         SUNNY     58  34  40 W10G17    30.19F
$$

LSZ147-162-162300-
LAKE SUPERIOR

STATION/POSITION TIME  TEMP    WIND        PRES    WAVE
                       AIR SEA DIR/SP/G            HT/PER
                 (UTC) (F)     (DEG/KT/KT) (MB)    (FT/S)
W MID LAKE BUOY  2050   53 53              1016.4F   3/ 5
DEVILS ISLAND    2100   56     240/ 13/ 16 1016.1F
PORT WING        1930          240/  8/ 11 1017.6F
SAXON HARBOR     2140   61     210/  8/ 15 1015.9F
$$

LMZ867-665-643>646-162300-
LAKE MICHIGAN

STATION/POSITION TIME  TEMP    WIND        PRES    WAVE
                       AIR SEA DIR/SP/G            HT/PER
                 (UTC) (F)     (DEG/KT/KT) (MB)    (FT/S)
S GREEN BAY BUOY 2130   58 58  220/ 14/ 16 1020.2F
N MID LAKE BUOY  2050   54 60  220/ 17/ 21 1021.5F   3/ 4
NORTHPORT PIER   2140   56     190/  5/ 11 1020.0F
KEWAUNEE LAKESHO 2130   58     220/  7/ 11 1020.4F
SHEBOYGAN LAKESH 2100   55     170/ 15/ 16 1021.9F
PORT WASHINGTON  2130   57     180/  7/ 14 1023.0S
MILWAUKEE LAKESH 2130   60     290/  9/ 11   N/A
S MID LAKE BUOY  2050   57 62  220/ 10/ 14 1023.8F   2/ 5
KENOSHA   LAKESH 2100   61     250/ 12/ 17 1022.7
$$

TC  - TEMPERATURE IN CELSIUS
VSB - VISIBILITY IN STATUTE MILES
WCI - WIND CHILL INDEX
HX  - HEAT INDEX





USA.gov is the U.S. government's official web portal to all federal, state and local government web resources and services.